> The Twenty-Ninth Presentation > Registration & Results > Results > 1998 21 Mile Power Walk > 1998 Big Sur 21 Mile Power Walk Women

1998 Big Sur 21 Mile Power Walk Women

1998 Big Sur Power Walk - WOMEN
04/26/98 - Carmel, CA

				
1. Debbie Havranek, Carrollton 44 4:04:47 6-95/1

2. Candace Furlong, Sacramento 47 4:06:49 6-95/2

3. Lise Belton, Salinas 36 4:08:13 6-95/3

4. Marcia Morrison, San Jose 49 4:13:18 6-95/4

5. Barbara Pelletreau, Lafayette 39 4:15:40 6-95/5

6. Joan Inman, Boulder Creek 50 4:16:17 6-95/6

7. Denise Mc Call, Laguna Niguel 45 4:16:33 6-95/7

8. Mary Hansen, Seaside 34 4:21:48 6-95/8

9. Dianne Howes, North Hollywood 50 4:21:48 6-95/9

10. Deanna Modic, Monterey 27 4:24:06 6-95/10

11. Susan Lebowitz, Pacific Grove 48 4:25:18 6-95/11

12. Bonnie Pieper, Pacific Grove 41 4:25:20 6-95/12

13. Gael Loris, Monterey 41 4:28:07 6-95/13

14. Teresa Nora, San Jose 37 4:28:07 6-95/14

15. Karen Brajenovich, San Jose 37 4:28:08 6-95/15

16. Diana Kenney, Alameda 34 4:32:27 6-95/16

17. Deborah Peyton, Pebble Beach 28 4:32:56 6-95/17

18. Cathy Alexander, Atwater 41 4:35:27 6-95/18

19. Sherry Fletcher, Carson City 57 4:35:47 6-95/19

20. Karin Koobatian, Visalia 41 4:36:29 6-95/20

21. Terry Adams, Byron 40 4:36:32 6-95/21

22. Nancy Jones, Palo Alto 42 4:36:37 6-95/22

23. Ursula Degen, Palo Alto 38 4:36:42 6-95/23

24. Constance Koenig, San Bernardino 39 4:37:17 6-95/24

25. Rebecca Karver, Portland 41 4:38:19 6-95/25

26. Susan Collins, Salinas 38 4:39:02 6-95/26

27. Susie Parker, Capitola 42 4:39:19 6-95/27

28. Theresa Crocker, Capitola 35 4:39:19 6-95/28

29. Liz Stroh-Coughlin, Los Gatos 44 4:39:30 6-95/29

30. Darlyne Dresbach, Beaverton 47 4:40:05 6-95/30

31. Ann Thompson, Toronto 50 4:41:30 6-95/31

32. Kathleen Kastner, Salinas 50 4:42:04 6-95/32

33. Kristi Wheeler, Carmel Valley 44 4:42:05 6-95/33

34. Janice Benjamin, Los Gatos 48 4:42:06 6-95/34

35. Cathy Wiegers, San Luis Obispo 40 4:44:33 6-95/35

36. Barbara Hartley, Temple City 55 4:44:36 6-95/36

37. Gloria Gustafson, Lafayette 63 4:44:47 6-95/37

38. Margaret Neville, San Luis Obispo 37 4:45:31 6-95/38

39. Laney Marshall, Toronto 45 4:45:35 6-95/39

40. Christine Dennis, Toronto 33 4:45:39 6-95/40

41. Claudia Mc Cord, Pacific Grove 44 4:46:48 6-95/41

42. Frances Rice, Long Beach 61 4:46:50 6-95/42

43. Kate Hogan, Sunnyvale 38 4:47:20 6-95/43

44. Lisa Barkalow, Carmel Valley 47 4:48:52 6-95/44

45. Jackie Steakley, Carmel 51 4:48:53 6-95/45

46. Marybeth Ries, San Anselmo 49 4:48:53 6-95/46

47. Heather Bartlett, San Francisco 29 4:49:54 6-95/47

48. Pamela Ballard, Portland 47 4:50:42 6-95/48

49. Tania Klapperich, Morgan Hill 24 4:51:21 6-95/49

50. Melissa Robertson, Los Gatos 27 4:51:22 6-95/50

51. Kelly Sampson, San Jose 23 4:51:24 6-95/51

52. Shirley Lewis, Lompoc 42 4:51:51 6-95/52

53. Kristen Demaria, Carmel Valley 45 4:51:57 6-95/53

54. Carol Root, Carmel Valley 46 4:52:06 6-95/54

55. Linda Heath, Mill Valley 51 4:52:15 6-95/55

56. Sharon Wilkerson, Pleasant Hill 45 4:53:36 6-95/56

57. Pamela Sutton, Salinas 51 4:54:03 6-95/57

58. Jean Janes, Lacon 41 4:54:14 6-95/58

59. Helen Ward, Ormond Beach 34 4:54:22 6-95/59

60. Pamela Borrelli, Valencia 46 4:54:38 6-95/60

61. Rhonda Augustitus, Carmel Valley 48 4:55:11 6-95/61

62. Elizabeth Brownell, Cedar Rapids 34 4:56:13 6-95/62

63. Meredith Hammans, San Francisco 27 4:56:14 6-95/63

64. Dixie Reding Beadles, Edmond 32 4:56:15 6-95/64

65. Rhonnda Edmiston, Portland 42 5:02:36 6-95/65

66. Shirley Weiss, Mill Valley 45 5:02:36 6-95/66

67. Jane Adams, Riverside 45 5:02:36 6-95/67

68. Sally Jennison, Prunedale 47 5:02:36 6-95/68

69. Leticia Caprlina, Mt. View 48 5:02:36 6-95/69

70. Eileen O'neill-Hitch, Soquel 46 5:02:36 6-95/70

71. Anne Canright, Del Rey Oaks 43 5:02:36 6-95/71

72. Hetty Eddy, Salinas 51 5:02:36 6-95/72

73. Chris Banks, Salinas 45 5:02:36 6-95/73

74. Marlis Corning, Mill Valley 30 5:02:36 6-95/74

75. Dawn Kessler, Cherry Hills 35 5:02:36 6-95/75

76. Desiree Calderon-Smith, Seaside 31 5:02:36 6-95/76

77. Kim Beaver, Seaside 37 5:02:36 6-95/77

78. Sheila Lawlis, Denver 29 5:02:36 6-95/78

79. Molly Martin, Durango 40 5:02:36 6-95/79

80. Roberta Schneider, Sacramento 59 5:02:38 6-95/80

81. Gail Gutterman, Sacramento 50 5:03:02 6-95/81

82. Martha Getris-Utschig, Salinas 36 5:03:35 6-95/82

83. Diane Ausonio, Salinas 37 5:03:36 6-95/83

84. Patricia Miller, San Anselmo 53 5:04:01 6-95/84

85. Jeanette Harris, Los Gatos 35 5:04:58 6-95/85

86. Sunnye Salway, Laguna Niguel 49 5:05:51 6-95/86

87. Leslie Furman, Newport Beach 44 5:05:52 6-95/87

88. Edie Scarpa, San Rafael 50 5:06:49 6-95/88

89. Esther Fifield, Visalia 48 5:08:07 6-95/89

90. Karen Munninghoff, Dumfries 49 5:09:33 6-95/90

91. Carey Bliss, Walnut Creek 20 5:10:08 6-95/91

92. Jenifer O'brien, San Pedro 54 5:10:52 6-95/92

93. Betty Williams, Long Beach 57 5:10:57 6-95/93

94. Joanne Alioto, San Rafael 47 5:11:09 6-95/94

95. Kary Shender, Salinas 52 5:12:33 6-95/95

96. Sandy Truong, San Jose 34 5:12:49 6-95/96

97. Trisha Peil, San Jose 37 5:12:50 6-95/97

98. Bobi Ellis, Elk Grove 32 5:12:53 6-95/98

99. Alice Stebbins, Elk Grove 35 5:12:54 6-95/99

100. Susanne Fitzpatrick, Irvine 37 5:12:56 6-95/100

101. June Derne, Lafayette 54 5:12:57 6-95/101

102. Betsy Schenk, Oakland 44 5:13:23 6-95/102

103. Linda Burnham, Castle Rock 50 5:15:06 6-95/103

104. Diane Warner, Greenwood Village 52 5:15:07 6-95/104

105. Laura Hohmann, Denver 27 5:16:05 6-95/105

106. Betty Lynn Thomas, Veradale 47 5:17:50 6-95/106

107. Marybeth Worhatch, Monterey 40 5:17:51 6-95/107

108. Cathy Nugent, Laguna Niguel 42 5:19:30 6-95/108

109. Tess Hunt, Aptos 45 5:20:17 6-95/109

110. Bobbi Young, Carmel 40 5:20:17 6-95/110

111. Dolores Kelley, San Diego 55 5:20:44 6-95/111

112. Diane Deems, Salinas 39 5:21:11 6-95/112

113. Marla Murray, Pacific Grove 26 5:22:15 6-95/113

114. Pam Cheeney, Bend 50 5:23:06 6-95/114

115. Edna Turpin, Fowler 47 5:23:36 6-95/115

116. Eliza Yen, Cupertino 35 5:23:41 6-95/116

117. Sofia Merida, Pasadena 33 5:24:25 6-95/117

118. Martha Nicholson, Sacramento 34 5:25:58 6-95/118

119. Heidi Earls, Barstow 39 5:27:10 6-95/119

120. Carmen Long, Garden Grove 49 5:28:16 6-95/120

121. Denise Glasco, Pleasanton 34 5:28:21 6-95/121

122. Debbie Redrup, Carlisle 34 5:28:23 6-95/122

123. Mary Fellows, Birmingham 33 5:28:23 6-95/123

124. Karen Blankemeyer, Monterey 43 5:28:24 6-95/124

125. Bonita Benjamin, Kirkland 46 5:28:33 6-95/125

126. Cindy Daugherty, St. Louis 34 5:28:34 6-95/126

127. Linda Pierce, Carmel 50 5:28:36 6-95/127

128. Tami Robin, Calabasas 36 5:32:03 6-95/128

129. Cynthia Casey, Pacific Grove 39 5:32:08 6-95/129

130. Kellie Perrotta, Los Angeles 36 5:32:14 6-95/130

131. Sandra Moritz, Monterey 52 5:34:33 6-95/131

132. Kimberly Crozier, Carmel 39 5:36:58 6-95/132

133. Kelly Leary, Quechee 37 5:36:58 6-95/133

134. Cristan Tamminga, San Francisco 28 5:39:07 6-95/134

135. Re Naye Foster Chubb, Boulder Creek 38 5:39:20 6-95/135

136. Lonna Wolf, Alamo 50 5:39:33 6-95/136


Copyright © 1998 Total Race Systems, Inc.
80 Mitchell Blvd, San Rafael, CA 94903 USA
1-800-998-7904
Contact us!